Juneau, AK

10:25 AM AKDT on October 22, 2017 (GMT -0800)
Juneau International

Weather History for PAJN - June, 2013

Change the Weather History Date:

Monday, June 24, 2013

  Actual Average Record
Temperature  
Mean Temperature 62 °F 56 °F  
Max Temperature 73 °F 63 °F 84 °F (2004)
Min Temperature 50 °F 48 °F 40 °F (1958)
Degree Days  
Heating Degree Days 3 10  
Month to date heating degree days 190 259  
Since 1 June heating degree days 190 259  
Since 1 July heating degree days 8726 8295  
Cooling Degree Days 0 0  
Month to date cooling degree days 7 0  
Year to date cooling degree days 7 0  
Since 1 June cooling degree days 7 0  
Growing Degree Days 12 (Base 50)    
Moisture  
Dew Point 52 °F    
Average Humidity 72    
Maximum Humidity 96    
Minimum Humidity 47    
Precipitation  
Precipitation 0.00 in 0.11 in 0.86 in (1985)
Month to date precipitation 2.40 2.54  
Year to date precipitation 30.77 22.14  
Sea Level Pressure  
Sea Level Pressure 29.52 in    
Wind  
Wind Speed 6 mph (WSW)    
Max Wind Speed 16 mph    
Max Gust Speed 17 mph    
Visibility 10 miles    
Events Rain , Thunderstorm    
T = Trace of Precipitation, MM = Missing Value Source: NWS Daily Summary

Daily Weather History Graph

Daily Weather History Graph

Search for Another Location

Airport or City:

Trip Planner

Search our weather history database for the weather conditions in past years. The results will help you decide how hot, cold, wet, or windy it might be!

Date:

Astronomy

Jun. 24, 2013 Rise Set
Actual Time 3:52 AM AKDT 10:09 PM AKDT
Civil Twilight 2:33 AM AKDT 11:27 PM AKDT
Nautical Twilight Sun does not rise Sun does not rise
Astronomical Twilight Sun does not rise Sun does not rise
Moon 10:34 PM AKDT (6/24) 6:01 AM AKDT (6/24)
Length of Visible Light 20h 54m
Length of Day
18h 16m
Full, 97% of the Moon is Illuminated
Jun 24
Full
Jun 29
Last Quarter
Jul 7
New
Jul 15
First Quarter
Jul 22
Full

Hourly Weather History & Observations

Time (AKDT) Temp. Dew Point Humidity Pressure Visibility Wind Dir Wind Speed Gust Speed Precip Events Conditions
12:53 AM 53.1 °F 50.0 °F 89% 29.63 in 10.0 mi Calm Calm - N/A   Partly Cloudy
1:53 AM 52.0 °F 50.0 °F 93% 29.62 in 10.0 mi Calm Calm - N/A   Partly Cloudy
2:53 AM 52.0 °F 48.9 °F 89% 29.62 in 10.0 mi Calm Calm - N/A   Partly Cloudy
3:53 AM 51.1 °F 48.0 °F 89% 29.60 in 10.0 mi WSW 4.6 mph - N/A   Clear
4:53 AM 50.0 °F 46.9 °F 89% 29.60 in 10.0 mi Calm Calm - N/A   Partly Cloudy
5:53 AM 52.0 °F 46.0 °F 80% 29.59 in 10.0 mi Calm Calm - N/A   Partly Cloudy
6:53 AM 57.9 °F 48.0 °F 70% 29.57 in 10.0 mi Calm Calm - N/A   Scattered Clouds
7:53 AM 57.9 °F 52.0 °F 81% 29.57 in 10.0 mi WSW 8.1 mph - N/A   Scattered Clouds
8:53 AM 60.1 °F 51.1 °F 72% 29.56 in 10.0 mi Variable 5.8 mph - N/A   Scattered Clouds
9:53 AM 62.1 °F 51.1 °F 67% 29.54 in 10.0 mi WSW 11.5 mph - N/A   Partly Cloudy
10:53 AM 64.9 °F 51.1 °F 61% 29.52 in 10.0 mi SW 8.1 mph - N/A   Partly Cloudy
11:53 AM 66.9 °F 51.1 °F 57% 29.52 in 10.0 mi WSW 13.8 mph - N/A   Scattered Clouds
12:53 PM 68.0 °F 48.9 °F 50% 29.50 in 10.0 mi WSW 12.7 mph - N/A   Mostly Cloudy
1:53 PM 70.0 °F 50.0 °F 49% 29.48 in 10.0 mi WSW 10.4 mph - N/A   Mostly Cloudy
2:53 PM 71.1 °F 50.0 °F 47% 29.46 in 10.0 mi WSW 10.4 mph - N/A   Mostly Cloudy
3:53 PM 72.0 °F 50.0 °F 46% 29.43 in 10.0 mi WSW 9.2 mph - N/A   Mostly Cloudy
4:53 PM 75.0 °F 51.1 °F 43% 29.42 in 10.0 mi WSW 9.2 mph - N/A   Overcast
5:53 PM 71.1 °F 50.0 °F 47% 29.44 in 10.0 mi Calm Calm - N/A   Mostly Cloudy
6:16 PM 69.1 °F 52.0 °F 54% 29.47 in 10.0 mi East 15.0 mph - 0.00 in Rain , Thunderstorm Light Thunderstorms and Rain
6:53 PM 66.9 °F 59.0 °F 76% 29.51 in 10.0 mi East 12.7 mph - 0.02 in Rain Rain
7:53 PM 64.9 °F 61.0 °F 87% 29.47 in 10.0 mi North 4.6 mph - 0.00 in   Mostly Cloudy
8:53 PM 64.0 °F 61.0 °F 90% 29.47 in 10.0 mi ENE 6.9 mph - N/A   Overcast
9:53 PM 63.0 °F 60.1 °F 90% 29.49 in 10.0 mi Variable 3.5 mph - 0.00 in Rain Light Rain
10:53 PM 62.1 °F 57.9 °F 86% 29.45 in 10.0 mi West 3.5 mph - 0.00 in   Overcast
11:53 PM 60.1 °F 57.0 °F 90% 29.47 in 10.0 mi Calm Calm - N/A   Mostly Cloudy